This is the latest recevied weather packets stored in our database for station/object WB3EGK. If no packets are shown the sender has not sent any weather packets the latest 10 day(s).
| Time | Temp. | Humidity | Pressure | Rain* | Wind** | Luminosity | Snow |
|---|---|---|---|---|---|---|---|
| 1778247396 | 9.44° C | 1% | 1010.2 hPa | 0 mm | - | 235 W/m² | - |
| 1778247093 | 9.44° C | 1% | 1010.2 hPa | 0 mm | - | 213 W/m² | - |
| 1778246791 | 8.89° C | 1% | 1010.2 hPa | 0 mm | - | 220 W/m² | - |
| 1778246488 | 8.89° C | 1% | 1010.3 hPa | 0 mm | - | 209 W/m² | - |
| 1778246183 | 8.89° C | 1% | 1010.4 hPa | 0 mm | - | 165 W/m² | - |
| 1778245880 | 8.89° C | 1% | 1010.2 hPa | 0 mm | - | 214 W/m² | - |
| 1778245577 | 8.33° C | 1% | 1010.3 hPa | 0 mm | - | 157 W/m² | - |
| 1778245273 | 8.33° C | 1% | 1010.3 hPa | 0 mm | - | 150 W/m² | - |
| 1778244968 | 8.33° C | 1% | 1010.1 hPa | 0 mm | - | 152 W/m² | - |
| 1778244667 | 7.78° C | 1% | 1010.1 hPa | 0 mm | - | 104 W/m² | - |
| 1778244364 | 7.78° C | 1% | 1010.3 hPa | 0 mm | - | 86 W/m² | - |
| 1778244061 | 7.78° C | 1% | 1010.2 hPa | 0 mm | - | 82 W/m² | - |
| 1778243759 | 7.78° C | 1% | 1010.1 hPa | 0 mm | - | 127 W/m² | - |
| 1778243456 | 7.78° C | 1% | 1010.3 hPa | 0 mm | - | 115 W/m² | - |
| 1778243152 | 7.22° C | 1% | 1010.1 hPa | 0 mm | - | 112 W/m² | - |
| 1778242850 | 7.78° C | 1% | 1010.1 hPa | 0 mm | - | 127 W/m² | - |
| 1778242548 | 7.78° C | 1% | 1010 hPa | 0 mm | - | 216 W/m² | - |
| 1778242246 | 7.22° C | 1% | 1010.2 hPa | 0 mm | - | 194 W/m² | - |
| 1778241943 | 7.22° C | 1% | 1010 hPa | 0 mm | - | 188 W/m² | - |
| 1778241641 | 6.67° C | 1% | 1009.9 hPa | 0 mm | - | 166 W/m² | - |
| 1778241338 | 6.11° C | 1% | 1009.9 hPa | 0 mm | - | 97 W/m² | - |
| 1778241034 | 6.11° C | 1% | 1009.9 hPa | 0 mm | - | 79 W/m² | - |
| 1778240732 | 6.11° C | 1% | 1009.9 hPa | 0 mm | - | 73 W/m² | - |
| 1778240428 | 6.11° C | 1% | 1009.9 hPa | 0 mm | - | 74 W/m² | - |
| 1778240126 | 6.11° C | 1% | 1009.8 hPa | 0 mm | - | 78 W/m² | - |
* Rain latest hour (hover to see other rain measurements)
** Current wind speed in m/s (hover to see current wind gust speed)